Date String (YYYY-MM-DD hh:mm:ss) UTC,Instrument flags,Ambient pressure (hPa),Sample flow (lpm),Bypass flow (lpm),Sample temperature (°C),Ambient temperature (°C),ASC tube jacket temperature (°C),LED temperature (°C),Box temperature (°C),Sample RH (%),Span deviation,Mass concentration (μg/m³),Mass concentration (μg/m³),Mass concentration (μg/m³)
DateTimeUTC,F1_M11,P_M11,Q1_M11,Q2_M11,T1_M11,T2_M11,T3_M11,T4_M11,T5_M11,U1_M11,ZSPAN_M11,X0_M11,X2_M11,X1_M11
2021-11-17 17:00:00,,0832.4,4.99,0.00,22.4,21.7,00.0,31.4,24.2,11.7,0000.0,0010.26,0003.29,0001.33
2021-11-17 17:01:00,,0832.4,4.99,0.00,22.4,21.8,00.0,31.4,24.2,11.6,0000.0,0009.72,0003.31,0001.34
2021-11-17 17:02:00,,0832.4,5.01,0.00,22.4,21.8,00.0,31.4,24.3,11.3,0000.0,0010.05,0003.34,0001.36
2021-11-17 17:03:00,,0832.4,4.99,0.00,22.4,21.8,00.0,31.4,24.3,11.3,0000.0,0010.18,0003.39,0001.38
2021-11-17 17:04:00,,0832.4,5.00,0.00,22.5,21.8,00.0,31.4,24.3,11.5,0000.0,0009.74,0003.46,0001.39
2021-11-17 17:05:00,,0832.5,4.99,0.00,22.5,21.8,00.0,31.4,24.3,12.2,0000.0,0009.65,0003.49,0001.41
2021-11-17 17:06:00,,0832.4,5.00,0.00,22.5,21.8,00.0,31.4,24.3,11.7,0000.0,0010.16,0003.48,0001.42
2021-11-17 17:07:00,,0832.5,5.00,0.00,22.4,21.8,00.0,31.4,24.2,11.6,0000.0,0010.26,0003.46,0001.44
2021-11-17 17:08:00,,0832.5,5.01,0.00,22.4,21.7,00.0,31.4,24.2,10.9,0000.0,0010.45,0003.44,0001.45
2021-11-17 17:09:00,,0832.5,5.00,0.00,22.4,21.7,00.0,31.4,24.2,10.9,0000.0,0010.41,0003.37,0001.44
2021-11-17 17:10:00,,0832.5,5.00,0.00,22.4,21.7,00.0,31.4,24.1,10.8,0000.0,0010.65,0003.37,0001.43
2021-11-17 17:11:00,,0832.5,5.01,0.00,22.4,21.7,00.0,31.4,24.1,10.6,0000.0,0011.18,0003.41,0001.43
2021-11-17 17:12:00,,0832.4,4.99,0.00,22.4,21.7,00.0,31.4,24.2,10.6,0000.0,0011.58,0003.40,0001.43
2021-11-17 17:13:00,,0832.4,5.00,0.00,22.4,21.8,00.0,31.4,24.2,10.8,0000.0,0011.15,0003.33,0001.42
2021-11-17 17:14:00,,0832.4,5.02,0.00,22.4,21.8,00.0,31.4,24.2,10.8,0000.0,0011.32,0003.32,0001.43
2021-11-17 17:15:00,,0832.3,5.00,0.00,22.4,21.8,00.0,31.4,24.2,10.8,0000.0,0011.66,0003.27,0001.44
2021-11-17 17:16:00,,0832.3,5.00,0.00,22.4,21.8,00.0,31.4,24.3,10.9,0000.0,0012.71,0003.23,0001.45
2021-11-17 17:17:00,,0832.4,5.00,0.00,22.4,21.8,00.0,31.4,24.3,10.8,0000.0,0012.19,0003.26,0001.44
2021-11-17 17:18:00,,0832.3,5.00,0.00,22.5,21.8,00.0,31.4,24.3,11.2,0000.0,0011.95,0003.28,0001.44
2021-11-17 17:19:00,,0832.3,5.00,0.00,22.5,21.8,00.0,31.4,24.3,11.0,0000.0,0011.43,0003.28,0001.46
2021-11-17 17:20:00,,0832.3,4.99,0.00,22.5,21.9,00.0,31.5,24.4,11.1,0000.0,0012.50,0003.34,0001.48
2021-11-17 17:21:00,,0832.3,4.99,0.00,22.6,21.9,00.0,31.5,24.4,10.9,0000.0,0012.57,0003.33,0001.51
2021-11-17 17:22:00,,0832.3,5.01,0.00,22.6,21.9,00.0,31.5,24.4,10.8,0000.0,0012.38,0003.29,0001.53
2021-11-17 17:23:00,,0832.4,4.99,0.00,22.6,22.0,00.0,31.5,24.4,11.1,0000.0,0013.37,0003.30,0001.54
2021-11-17 17:24:00,,0832.4,5.00,0.00,22.6,22.0,00.0,31.5,24.5,10.8,0000.0,0013.66,0003.33,0001.55
2021-11-17 17:25:00,,0832.4,5.01,0.00,22.6,22.0,00.0,31.5,24.5,10.7,0000.0,0013.24,0003.27,0001.52
2021-11-17 17:26:00,,0832.4,4.99,0.00,22.7,22.0,00.0,31.5,24.5,10.8,0000.0,0012.97,0003.22,0001.50
2021-11-17 17:27:00,,0832.4,5.00,0.00,22.7,22.0,00.0,31.6,24.5,11.0,0000.0,0011.82,0003.22,0001.48
2021-11-17 17:28:00,,0832.3,5.00,0.00,22.7,22.0,00.0,31.6,24.5,10.1,0000.0,0012.07,0003.19,0001.46
2021-11-17 17:29:00,,0832.4,5.00,0.00,22.7,22.1,00.0,31.6,24.5,10.0,0000.0,0012.88,0003.13,0001.40
2021-11-17 17:30:00,,0832.3,4.99,0.00,22.7,22.0,00.0,31.6,24.6,09.8,0000.0,0013.53,0003.11,0001.34
2021-11-17 17:31:00,,0832.3,5.01,0.00,22.7,22.0,00.0,31.6,24.6,09.8,0000.0,0012.66,0003.02,0001.29
2021-11-17 17:32:00,,0832.4,4.99,0.00,22.7,22.0,00.0,31.6,24.6,09.6,0000.0,0012.01,0002.90,0001.21
2021-11-17 17:33:00,,0832.4,5.01,0.00,22.7,22.0,00.0,31.6,24.5,09.7,0000.0,0011.88,0002.75,0001.15
2021-11-17 17:34:00,,0832.4,4.99,0.00,22.7,22.0,00.0,31.6,24.5,09.9,0000.0,0010.60,0002.57,0001.09
2021-11-17 17:35:00,,0832.4,5.00,0.00,22.7,22.0,00.0,31.6,24.5,09.9,0000.0,0010.80,0002.49,0001.03
2021-11-17 17:36:00,,0832.4,5.00,0.00,22.7,22.0,00.0,31.6,24.5,09.6,0000.0,0011.50,0002.50,0000.99
2021-11-17 17:37:00,,0832.4,5.01,0.00,22.7,22.0,00.0,31.7,24.6,09.6,0000.0,0011.64,0002.54,0000.97
2021-11-17 17:38:00,,0832.4,4.99,0.00,22.7,22.1,00.0,31.7,24.6,09.9,0000.0,0011.41,0002.55,0000.97
2021-11-17 17:39:00,,0832.5,5.01,0.00,22.8,22.1,00.0,31.7,24.6,09.9,0000.0,0012.06,0002.57,0000.97
2021-11-17 17:40:00,,0832.4,4.99,0.00,22.8,22.0,00.0,31.7,24.6,10.3,0000.0,0011.25,0002.61,0001.00
2021-11-17 17:41:00,,0832.5,5.00,0.00,22.8,22.0,00.0,31.7,24.6,10.8,0000.0,0010.60,0002.66,0001.04
2021-11-17 17:42:00,,0832.4,5.00,0.00,22.8,22.0,00.0,31.7,24.6,10.7,0000.0,0010.84,0002.78,0001.09
2021-11-17 17:43:00,,0832.5,5.01,0.00,22.8,22.0,00.0,31.7,24.6,10.4,0000.0,0011.60,0002.94,0001.14
2021-11-17 17:44:00,,0832.4,5.00,0.00,22.8,22.0,00.0,31.7,24.6,10.4,0000.0,0011.56,0003.09,0001.19
2021-11-17 17:45:00,,0832.4,5.00,0.00,22.8,22.0,00.0,31.7,24.6,10.7,0000.0,0011.63,0003.19,0001.24
2021-11-17 17:46:00,,0832.4,5.01,0.00,22.8,22.1,00.0,31.7,24.6,11.2,0000.0,0011.01,0003.24,0001.30
2021-11-17 17:47:00,,0832.3,4.99,0.00,22.8,22.1,00.0,31.7,24.6,11.0,0000.0,0010.43,0003.30,0001.37
2021-11-17 17:48:00,,0832.3,5.00,0.00,22.8,22.1,00.0,31.7,24.6,10.9,0000.0,0010.44,0003.34,0001.42
2021-11-17 17:49:00,,0832.4,5.00,0.00,22.8,22.1,00.0,31.7,24.6,11.0,0000.0,0010.56,0003.44,0001.47
2021-11-17 17:50:00,,0832.4,5.00,0.00,22.8,22.1,00.0,31.7,24.6,10.9,0000.0,0009.56,0003.44,0001.51
2021-11-17 17:51:00,,0832.3,4.99,0.00,22.8,22.0,00.0,31.7,24.6,11.1,0000.0,0009.93,0003.52,0001.57
2021-11-17 17:52:00,,0832.3,4.99,0.00,22.8,22.0,00.0,31.7,24.6,11.4,0000.0,0010.52,0003.54,0001.59
2021-11-17 17:53:00,,0832.2,5.01,0.00,22.8,22.1,00.0,31.8,24.6,11.4,0000.0,0010.40,0003.50,0001.59
2021-11-17 17:54:00,,0832.2,4.99,0.00,22.8,22.1,00.0,31.8,24.6,11.2,0000.0,0010.01,0003.54,0001.62
2021-11-17 17:55:00,,0832.3,5.01,0.00,22.8,22.1,00.0,31.8,24.7,10.9,0000.0,0010.01,0003.54,0001.63
2021-11-17 17:56:00,,0832.2,5.00,0.00,22.9,22.1,00.0,31.8,24.7,10.7,0000.0,0010.25,0003.61,0001.65
2021-11-17 17:57:00,,0832.2,5.00,0.00,22.9,22.2,00.0,31.8,24.7,10.6,0000.0,0010.23,0003.61,0001.65
2021-11-17 17:58:00,,0832.3,4.99,0.00,22.9,22.2,00.0,31.8,24.7,10.9,0000.0,0010.30,0003.63,0001.66
2021-11-17 17:59:00,,0832.2,5.00,0.00,22.9,22.2,00.0,31.8,24.7,11.2,0000.0,0010.55,0003.63,0001.67
